segment_id,date_local,uptime,ped_lft,ped_rgt,ped_total,bike_lft,bike_rgt,bike_total,car_lft,car_rgt,car_total,heavy_lft,heavy_rgt,heavy_total,v85,car_speed0,car_speed10,car_speed20,car_speed30,car_speed40,car_speed50,car_speed60,car_speed70
100024661,2019-05-01 00:00,1.0,,,,100,97,197,,,,,,,
100024661,2019-05-01 01:00,1.0,,,,96,56,152,,,,,,,
100024661,2019-05-01 02:00,1.0,,,,77,39,116,,,,,,,
100024661,2019-05-01 03:00,1.0,,,,41,19,60,,,,,,,
100024661,2019-05-01 04:00,1.0,,,,20,24,44,,,,,,,
100024661,2019-05-01 05:00,1.0,,,,14,11,25,,,,,,,
100024661,2019-05-01 06:00,1.0,,,,12,8,20,,,,,,,
100024661,2019-05-01 07:00,1.0,,,,22,16,38,,,,,,,
100024661,2019-05-01 08:00,1.0,,,,46,28,74,,,,,,,
100024661,2019-05-01 09:00,1.0,,,,75,58,133,,,,,,,
100024661,2019-05-01 10:00,1.0,,,,87,100,187,,,,,,,
100024661,2019-05-01 11:00,1.0,,,,78,155,233,,,,,,,
100024661,2019-05-01 12:00,1.0,,,,113,167,280,,,,,,,
100024661,2019-05-01 13:00,1.0,,,,146,314,460,,,,,,,
100024661,2019-05-01 14:00,1.0,,,,171,342,513,,,,,,,
100024661,2019-05-01 15:00,1.0,,,,156,302,458,,,,,,,
100024661,2019-05-01 16:00,1.0,,,,198,140,338,,,,,,,
100024661,2019-05-01 17:00,1.0,,,,227,208,435,,,,,,,
100024661,2019-05-01 18:00,1.0,,,,307,147,454,,,,,,,
100024661,2019-05-01 19:00,1.0,,,,269,134,403,,,,,,,
100024661,2019-05-01 20:00,1.0,,,,244,86,330,,,,,,,
100024661,2019-05-01 21:00,1.0,,,,209,71,280,,,,,,,
100024661,2019-05-01 22:00,1.0,,,,178,53,231,,,,,,,
100024661,2019-05-01 23:00,1.0,,,,136,50,186,,,,,,,
100024661,2019-05-02 00:00,1.0,,,,56,34,90,,,,,,,
100024661,2019-05-02 01:00,1.0,,,,43,17,60,,,,,,,
100024661,2019-05-02 02:00,1.0,,,,30,5,35,,,,,,,
100024661,2019-05-02 03:00,1.0,,,,14,7,21,,,,,,,
100024661,2019-05-02 04:00,1.0,,,,5,4,9,,,,,,,
100024661,2019-05-02 05:00,1.0,,,,22,40,62,,,,,,,
100024661,2019-05-02 06:00,1.0,,,,63,111,174,,,,,,,
100024661,2019-05-02 07:00,1.0,,,,131,266,397,,,,,,,
100024661,2019-05-02 08:00,1.0,,,,390,706,1096,,,,,,,
100024661,2019-05-02 09:00,1.0,,,,413,612,1025,,,,,,,
100024661,2019-05-02 10:00,1.0,,,,211,265,476,,,,,,,
100024661,2019-05-02 11:00,1.0,,,,179,158,337,,,,,,,
100024661,2019-05-02 12:00,1.0,,,,165,158,323,,,,,,,
100024661,2019-05-02 13:00,1.0,,,,180,155,335,,,,,,,
100024661,2019-05-02 14:00,1.0,,,,254,217,471,,,,,,,
100024661,2019-05-02 15:00,1.0,,,,349,250,599,,,,,,,
100024661,2019-05-02 16:00,1.0,,,,372,269,641,,,,,,,
100024661,2019-05-02 17:00,1.0,,,,588,330,918,,,,,,,
100024661,2019-05-02 18:00,1.0,,,,683,492,1175,,,,,,,
100024661,2019-05-02 19:00,1.0,,,,363,330,693,,,,,,,
100024661,2019-05-02 20:00,1.0,,,,204,192,396,,,,,,,
100024661,2019-05-02 21:00,1.0,,,,144,183,327,,,,,,,
100024661,2019-05-02 22:00,1.0,,,,105,125,230,,,,,,,
100024661,2019-05-02 23:00,1.0,,,,63,78,141,,,,,,,
100024661,2019-05-03 00:00,1.0,,,,34,44,78,,,,,,,
100024661,2019-05-03 01:00,1.0,,,,19,23,42,,,,,,,
100024661,2019-05-03 02:00,1.0,,,,9,7,16,,,,,,,
100024661,2019-05-03 03:00,1.0,,,,9,5,14,,,,,,,
100024661,2019-05-03 04:00,1.0,,,,6,15,21,,,,,,,
100024661,2019-05-03 05:00,1.0,,,,16,27,43,,,,,,,
100024661,2019-05-03 06:00,1.0,,,,42,84,126,,,,,,,
100024661,2019-05-03 07:00,1.0,,,,153,282,435,,,,,,,
100024661,2019-05-03 08:00,1.0,,,,373,648,1021,,,,,,,
100024661,2019-05-03 09:00,1.0,,,,399,564,963,,,,,,,
100024661,2019-05-03 10:00,1.0,,,,226,255,481,,,,,,,
100024661,2019-05-03 11:00,1.0,,,,206,198,404,,,,,,,
100024661,2019-05-03 12:00,1.0,,,,206,203,409,,,,,,,
100024661,2019-05-03 13:00,1.0,,,,263,237,500,,,,,,,
100024661,2019-05-03 14:00,1.0,,,,312,261,573,,,,,,,
100024661,2019-05-03 15:00,1.0,,,,340,274,614,,,,,,,
100024661,2019-05-03 16:00,1.0,,,,437,286,723,,,,,,,
100024661,2019-05-03 17:00,1.0,,,,515,352,867,,,,,,,
100024661,2019-05-03 18:00,1.0,,,,510,447,957,,,,,,,
100024661,2019-05-03 19:00,1.0,,,,294,347,641,,,,,,,
100024661,2019-05-03 20:00,1.0,,,,194,183,377,,,,,,,
100024661,2019-05-03 21:00,1.0,,,,117,152,269,,,,,,,
100024661,2019-05-03 22:00,1.0,,,,87,102,189,,,,,,,
100024661,2019-05-03 23:00,1.0,,,,86,91,177,,,,,,,
100024661,2019-05-04 00:00,1.0,,,,75,61,136,,,,,,,
100024661,2019-05-04 01:00,1.0,,,,63,49,112,,,,,,,
100024661,2019-05-04 02:00,1.0,,,,40,25,65,,,,,,,
100024661,2019-05-04 03:00,1.0,,,,31,17,48,,,,,,,
100024661,2019-05-04 04:00,1.0,,,,16,17,33,,,,,,,
100024661,2019-05-04 05:00,1.0,,,,13,3,16,,,,,,,
100024661,2019-05-04 06:00,1.0,,,,15,10,25,,,,,,,
100024661,2019-05-04 07:00,1.0,,,,24,14,38,,,,,,,
100024661,2019-05-04 08:00,1.0,,,,54,44,98,,,,,,,
100024661,2019-05-04 09:00,1.0,,,,103,81,184,,,,,,,
100024661,2019-05-04 10:00,1.0,,,,127,94,221,,,,,,,
100024661,2019-05-04 11:00,1.0,,,,133,125,258,,,,,,,
100024661,2019-05-04 12:00,1.0,,,,161,158,319,,,,,,,
100024661,2019-05-04 13:00,1.0,,,,183,176,359,,,,,,,
100024661,2019-05-04 14:00,1.0,,,,195,189,384,,,,,,,
100024661,2019-05-04 15:00,1.0,,,,220,195,415,,,,,,,
100024661,2019-05-04 16:00,1.0,,,,161,198,359,,,,,,,
100024661,2019-05-04 17:00,1.0,,,,185,211,396,,,,,,,
100024661,2019-05-04 18:00,1.0,,,,217,253,470,,,,,,,
100024661,2019-05-04 19:00,1.0,,,,180,176,356,,,,,,,
100024661,2019-05-04 20:00,1.0,,,,114,167,281,,,,,,,
100024661,2019-05-04 21:00,1.0,,,,85,109,194,,,,,,,
100024661,2019-05-04 22:00,1.0,,,,67,88,155,,,,,,,
100024661,2019-05-04 23:00,1.0,,,,79,93,172,,,,,,,
100024661,2019-05-05 00:00,1.0,,,,60,58,118,,,,,,,
100024661,2019-05-05 01:00,1.0,,,,58,64,122,,,,,,,
100024661,2019-05-05 02:00,1.0,,,,43,31,74,,,,,,,
100024661,2019-05-05 03:00,1.0,,,,24,30,54,,,,,,,
100024661,2019-05-05 04:00,1.0,,,,20,12,32,,,,,,,
100024661,2019-05-05 05:00,1.0,,,,12,14,26,,,,,,,
100024661,2019-05-05 06:00,1.0,,,,15,13,28,,,,,,,
100024661,2019-05-05 07:00,1.0,,,,17,10,27,,,,,,,
100024661,2019-05-05 08:00,1.0,,,,28,32,60,,,,,,,
100024661,2019-05-05 09:00,1.0,,,,70,56,126,,,,,,,
100024661,2019-05-05 10:00,1.0,,,,92,98,190,,,,,,,
100024661,2019-05-05 11:00,1.0,,,,110,117,227,,,,,,,
100024661,2019-05-05 12:00,1.0,,,,117,113,230,,,,,,,
100024661,2019-05-05 13:00,1.0,,,,139,157,296,,,,,,,
100024661,2019-05-05 14:00,1.0,,,,147,168,315,,,,,,,
100024661,2019-05-05 15:00,1.0,,,,157,180,337,,,,,,,
100024661,2019-05-05 16:00,1.0,,,,157,147,304,,,,,,,
100024661,2019-05-05 17:00,1.0,,,,152,151,303,,,,,,,
100024661,2019-05-05 18:00,1.0,,,,152,154,306,,,,,,,
100024661,2019-05-05 19:00,1.0,,,,162,110,272,,,,,,,
100024661,2019-05-05 20:00,1.0,,,,93,111,204,,,,,,,
100024661,2019-05-05 21:00,1.0,,,,72,63,135,,,,,,,
100024661,2019-05-05 22:00,1.0,,,,76,79,155,,,,,,,
100024661,2019-05-05 23:00,1.0,,,,49,58,107,,,,,,,
100024661,2019-05-06 00:00,1.0,,,,30,28,58,,,,,,,
100024661,2019-05-06 01:00,1.0,,,,12,14,26,,,,,,,
100024661,2019-05-06 02:00,1.0,,,,15,4,19,,,,,,,
100024661,2019-05-06 03:00,1.0,,,,1,6,7,,,,,,,
100024661,2019-05-06 04:00,1.0,,,,5,13,18,,,,,,,
100024661,2019-05-06 05:00,1.0,,,,15,29,44,,,,,,,
100024661,2019-05-06 06:00,1.0,,,,61,107,168,,,,,,,
100024661,2019-05-06 07:00,1.0,,,,166,329,495,,,,,,,
100024661,2019-05-06 08:00,1.0,,,,469,864,1333,,,,,,,
100024661,2019-05-06 09:00,1.0,,,,518,655,1173,,,,,,,
100024661,2019-05-06 10:00,1.0,,,,191,290,481,,,,,,,
100024661,2019-05-06 11:00,1.0,,,,173,190,363,,,,,,,
100024661,2019-05-06 12:00,1.0,,,,166,187,353,,,,,,,
100024661,2019-05-06 13:00,1.0,,,,185,203,388,,,,,,,
100024661,2019-05-06 14:00,1.0,,,,268,249,517,,,,,,,
100024661,2019-05-06 15:00,1.0,,,,365,273,638,,,,,,,
100024661,2019-05-06 16:00,1.0,,,,450,298,748,,,,,,,
100024661,2019-05-06 17:00,1.0,,,,625,416,1041,,,,,,,
100024661,2019-05-06 18:00,1.0,,,,683,535,1218,,,,,,,
100024661,2019-05-06 19:00,1.0,,,,402,343,745,,,,,,,
100024661,2019-05-06 20:00,1.0,,,,225,207,432,,,,,,,
100024661,2019-05-06 21:00,1.0,,,,151,156,307,,,,,,,
100024661,2019-05-06 22:00,1.0,,,,114,103,217,,,,,,,
100024661,2019-05-06 23:00,1.0,,,,48,71,119,,,,,,,
100024661,2019-05-07 00:00,1.0,,,,37,27,64,,,,,,,
100024661,2019-05-07 01:00,1.0,,,,13,15,28,,,,,,,
100024661,2019-05-07 02:00,1.0,,,,11,5,16,,,,,,,
100024661,2019-05-07 03:00,1.0,,,,2,4,6,,,,,,,
100024661,2019-05-07 04:00,1.0,,,,4,14,18,,,,,,,
100024661,2019-05-07 05:00,1.0,,,,17,28,45,,,,,,,
100024661,2019-05-07 06:00,1.0,,,,39,108,147,,,,,,,
100024661,2019-05-07 07:00,1.0,,,,170,342,512,,,,,,,
100024661,2019-05-07 08:00,1.0,,,,455,846,1301,,,,,,,
100024661,2019-05-07 09:00,1.0,,,,511,662,1173,,,,,,,
100024661,2019-05-07 10:00,1.0,,,,243,267,510,,,,,,,
100024661,2019-05-07 11:00,1.0,,,,200,204,404,,,,,,,
100024661,2019-05-07 12:00,1.0,,,,206,188,394,,,,,,,
100024661,2019-05-07 13:00,1.0,,,,225,191,416,,,,,,,
100024661,2019-05-07 14:00,1.0,,,,295,205,500,,,,,,,
100024661,2019-05-07 15:00,1.0,,,,374,281,655,,,,,,,
100024661,2019-05-07 16:00,1.0,,,,459,325,784,,,,,,,
100024661,2019-05-07 17:00,1.0,,,,618,426,1044,,,,,,,
100024661,2019-05-07 18:00,1.0,,,,753,599,1352,,,,,,,
100024661,2019-05-07 19:00,1.0,,,,449,391,840,,,,,,,
100024661,2019-05-07 20:00,1.0,,,,270,256,526,,,,,,,
100024661,2019-05-07 21:00,1.0,,,,165,197,362,,,,,,,
100024661,2019-05-07 22:00,1.0,,,,134,135,269,,,,,,,
100024661,2019-05-07 23:00,1.0,,,,93,96,189,,,,,,,
100024661,2019-05-08 00:00,1.0,,,,40,54,94,,,,,,,
100024661,2019-05-08 01:00,1.0,,,,26,25,51,,,,,,,
100024661,2019-05-08 02:00,1.0,,,,8,6,14,,,,,,,
100024661,2019-05-08 03:00,1.0,,,,11,5,16,,,,,,,
100024661,2019-05-08 04:00,1.0,,,,4,13,17,,,,,,,
100024661,2019-05-08 05:00,1.0,,,,12,25,37,,,,,,,
100024661,2019-05-08 06:00,1.0,,,,55,129,184,,,,,,,
100024661,2019-05-08 07:00,1.0,,,,190,362,552,,,,,,,
100024661,2019-05-08 08:00,1.0,,,,471,886,1357,,,,,,,
100024661,2019-05-08 09:00,1.0,,,,534,684,1218,,,,,,,
100024661,2019-05-08 10:00,1.0,,,,241,307,548,,,,,,,
100024661,2019-05-08 11:00,1.0,,,,199,205,404,,,,,,,
100024661,2019-05-08 12:00,1.0,,,,200,196,396,,,,,,,
100024661,2019-05-08 13:00,1.0,,,,228,228,456,,,,,,,
100024661,2019-05-08 14:00,1.0,,,,300,259,559,,,,,,,
100024661,2019-05-08 15:00,1.0,,,,433,301,734,,,,,,,
100024661,2019-05-08 16:00,1.0,,,,448,313,761,,,,,,,
100024661,2019-05-08 17:00,1.0,,,,618,387,1005,,,,,,,
100024661,2019-05-08 18:00,1.0,,,,778,623,1401,,,,,,,
100024661,2019-05-08 19:00,1.0,,,,457,428,885,,,,,,,
100024661,2019-05-08 20:00,1.0,,,,256,265,521,,,,,,,
100024661,2019-05-08 21:00,1.0,,,,154,177,331,,,,,,,
100024661,2019-05-08 22:00,1.0,,,,132,129,261,,,,,,,
100024661,2019-05-08 23:00,1.0,,,,103,91,194,,,,,,,
100024661,2019-05-09 00:00,1.0,,,,54,54,108,,,,,,,
100024661,2019-05-09 01:00,1.0,,,,25,18,43,,,,,,,
100024661,2019-05-09 02:00,1.0,,,,9,9,18,,,,,,,
100024661,2019-05-09 03:00,1.0,,,,6,3,9,,,,,,,
100024661,2019-05-09 04:00,1.0,,,,7,8,15,,,,,,,
100024661,2019-05-09 05:00,1.0,,,,11,19,30,,,,,,,
100024661,2019-05-09 06:00,1.0,,,,47,108,155,,,,,,,
100024661,2019-05-09 07:00,1.0,,,,163,301,464,,,,,,,
100024661,2019-05-09 08:00,1.0,,,,438,786,1224,,,,,,,
100024661,2019-05-09 09:00,1.0,,,,449,642,1091,,,,,,,
100024661,2019-05-09 10:00,1.0,,,,218,255,473,,,,,,,
100024661,2019-05-09 11:00,1.0,,,,178,180,358,,,,,,,
100024661,2019-05-09 12:00,1.0,,,,203,215,418,,,,,,,
100024661,2019-05-09 13:00,1.0,,,,259,179,438,,,,,,,
100024661,2019-05-09 14:00,1.0,,,,258,195,453,,,,,,,
100024661,2019-05-09 15:00,1.0,,,,340,253,593,,,,,,,
100024661,2019-05-09 16:00,1.0,,,,441,302,743,,,,,,,
100024661,2019-05-09 17:00,1.0,,,,519,422,941,,,,,,,
100024661,2019-05-09 18:00,1.0,,,,647,583,1230,,,,,,,
100024661,2019-05-09 19:00,1.0,,,,432,418,850,,,,,,,
100024661,2019-05-09 20:00,1.0,,,,268,269,537,,,,,,,
100024661,2019-05-09 21:00,1.0,,,,186,218,404,,,,,,,
100024661,2019-05-09 22:00,1.0,,,,160,152,312,,,,,,,
100024661,2019-05-09 23:00,1.0,,,,112,96,208,,,,,,,
100024661,2019-05-10 00:00,1.0,,,,95,66,161,,,,,,,
100024661,2019-05-10 01:00,1.0,,,,50,39,89,,,,,,,
100024661,2019-05-10 02:00,1.0,,,,23,15,38,,,,,,,
100024661,2019-05-10 03:00,1.0,,,,8,8,16,,,,,,,
100024661,2019-05-10 04:00,1.0,,,,10,10,20,,,,,,,
100024661,2019-05-10 05:00,1.0,,,,7,26,33,,,,,,,
100024661,2019-05-10 06:00,1.0,,,,48,97,145,,,,,,,
100024661,2019-05-10 07:00,1.0,,,,136,264,400,,,,,,,
100024661,2019-05-10 08:00,1.0,,,,393,671,1064,,,,,,,
100024661,2019-05-10 09:00,1.0,,,,459,575,1034,,,,,,,
100024661,2019-05-10 10:00,1.0,,,,203,239,442,,,,,,,
100024661,2019-05-10 11:00,1.0,,,,171,197,368,,,,,,,
100024661,2019-05-10 12:00,1.0,,,,212,221,433,,,,,,,
100024661,2019-05-10 13:00,1.0,,,,247,238,485,,,,,,,
100024661,2019-05-10 14:00,1.0,,,,285,247,532,,,,,,,
100024661,2019-05-10 15:00,1.0,,,,387,265,652,,,,,,,
100024661,2019-05-10 16:00,1.0,,,,418,333,751,,,,,,,
100024661,2019-05-10 17:00,1.0,,,,481,345,826,,,,,,,
100024661,2019-05-10 18:00,1.0,,,,491,470,961,,,,,,,
100024661,2019-05-10 19:00,1.0,,,,319,357,676,,,,,,,
100024661,2019-05-10 20:00,1.0,,,,215,255,470,,,,,,,
100024661,2019-05-10 21:00,1.0,,,,129,168,297,,,,,,,
100024661,2019-05-10 22:00,1.0,,,,135,111,246,,,,,,,
100024661,2019-05-10 23:00,1.0,,,,129,94,223,,,,,,,
100024661,2019-05-11 00:00,1.0,,,,93,98,191,,,,,,,
100024661,2019-05-11 01:00,1.0,,,,74,52,126,,,,,,,
100024661,2019-05-11 02:00,1.0,,,,46,35,81,,,,,,,
100024661,2019-05-11 03:00,1.0,,,,36,14,50,,,,,,,
100024661,2019-05-11 04:00,1.0,,,,22,10,32,,,,,,,
100024661,2019-05-11 05:00,1.0,,,,13,10,23,,,,,,,
100024661,2019-05-11 06:00,1.0,,,,30,14,44,,,,,,,
100024661,2019-05-11 07:00,1.0,,,,34,18,52,,,,,,,
100024661,2019-05-11 08:00,1.0,,,,52,60,112,,,,,,,
100024661,2019-05-11 09:00,1.0,,,,116,121,237,,,,,,,
100024661,2019-05-11 10:00,1.0,,,,157,121,278,,,,,,,
100024661,2019-05-11 11:00,1.0,,,,159,154,313,,,,,,,
100024661,2019-05-11 12:00,1.0,,,,188,198,386,,,,,,,
100024661,2019-05-11 13:00,1.0,,,,212,203,415,,,,,,,
100024661,2019-05-11 14:00,1.0,,,,215,201,416,,,,,,,
100024661,2019-05-11 15:00,1.0,,,,190,193,383,,,,,,,
100024661,2019-05-11 16:00,1.0,,,,186,177,363,,,,,,,
100024661,2019-05-11 17:00,1.0,,,,168,175,343,,,,,,,
100024661,2019-05-11 18:00,1.0,,,,150,172,322,,,,,,,
100024661,2019-05-11 19:00,1.0,,,,126,158,284,,,,,,,
100024661,2019-05-11 20:00,1.0,,,,64,133,197,,,,,,,
100024661,2019-05-11 21:00,1.0,,,,74,89,163,,,,,,,
100024661,2019-05-11 22:00,1.0,,,,57,78,135,,,,,,,
100024661,2019-05-11 23:00,1.0,,,,44,53,97,,,,,,,
100024661,2019-05-12 00:00,1.0,,,,56,57,113,,,,,,,
100024661,2019-05-12 01:00,1.0,,,,43,58,101,,,,,,,
100024661,2019-05-12 02:00,1.0,,,,44,26,70,,,,,,,
100024661,2019-05-12 03:00,1.0,,,,24,14,38,,,,,,,
100024661,2019-05-12 04:00,1.0,,,,29,9,38,,,,,,,
100024661,2019-05-12 05:00,1.0,,,,18,7,25,,,,,,,
100024661,2019-05-12 06:00,1.0,,,,17,10,27,,,,,,,
100024661,2019-05-12 07:00,1.0,,,,14,14,28,,,,,,,
100024661,2019-05-12 08:00,1.0,,,,35,32,67,,,,,,,
100024661,2019-05-12 09:00,1.0,,,,69,54,123,,,,,,,
100024661,2019-05-12 10:00,1.0,,,,96,90,186,,,,,,,
100024661,2019-05-12 11:00,1.0,,,,109,121,230,,,,,,,
100024661,2019-05-12 12:00,1.0,,,,140,165,305,,,,,,,
100024661,2019-05-12 13:00,1.0,,,,191,199,390,,,,,,,
100024661,2019-05-12 14:00,1.0,,,,239,233,472,,,,,,,
100024661,2019-05-12 15:00,1.0,,,,236,208,444,,,,,,,
100024661,2019-05-12 16:00,1.0,,,,229,206,435,,,,,,,
100024661,2019-05-12 17:00,1.0,,,,242,212,454,,,,,,,
100024661,2019-05-12 18:00,1.0,,,,234,210,444,,,,,,,
100024661,2019-05-12 19:00,1.0,,,,196,190,386,,,,,,,
100024661,2019-05-12 20:00,1.0,,,,147,161,308,,,,,,,
100024661,2019-05-12 21:00,1.0,,,,115,111,226,,,,,,,
100024661,2019-05-12 22:00,1.0,,,,79,72,151,,,,,,,
100024661,2019-05-12 23:00,1.0,,,,52,62,114,,,,,,,
100024661,2019-05-13 00:00,1.0,,,,25,30,55,,,,,,,
100024661,2019-05-13 01:00,1.0,,,,14,16,30,,,,,,,
100024661,2019-05-13 02:00,1.0,,,,12,3,15,,,,,,,
100024661,2019-05-13 03:00,1.0,,,,5,3,8,,,,,,,
100024661,2019-05-13 04:00,1.0,,,,8,12,20,,,,,,,
100024661,2019-05-13 05:00,1.0,,,,13,32,45,,,,,,,
100024661,2019-05-13 06:00,1.0,,,,77,121,198,,,,,,,
100024661,2019-05-13 07:00,1.0,,,,161,383,544,,,,,,,
100024661,2019-05-13 08:00,1.0,,,,509,868,1377,,,,,,,
100024661,2019-05-13 09:00,1.0,,,,544,717,1261,,,,,,,
100024661,2019-05-13 10:00,1.0,,,,235,289,524,,,,,,,
100024661,2019-05-13 11:00,1.0,,,,192,221,413,,,,,,,
100024661,2019-05-13 12:00,1.0,,,,185,223,408,,,,,,,
100024661,2019-05-13 13:00,1.0,,,,218,208,426,,,,,,,
100024661,2019-05-13 14:00,1.0,,,,268,231,499,,,,,,,
100024661,2019-05-13 15:00,1.0,,,,382,293,675,,,,,,,
100024661,2019-05-13 16:00,1.0,,,,501,333,834,,,,,,,
100024661,2019-05-13 17:00,1.0,,,,628,444,1072,,,,,,,
100024661,2019-05-13 18:00,1.0,,,,823,600,1423,,,,,,,
100024661,2019-05-13 19:00,1.0,,,,449,392,841,,,,,,,
100024661,2019-05-13 20:00,1.0,,,,239,244,483,,,,,,,
100024661,2019-05-13 21:00,1.0,,,,159,160,319,,,,,,,
100024661,2019-05-13 22:00,1.0,,,,135,129,264,,,,,,,
100024661,2019-05-13 23:00,1.0,,,,73,84,157,,,,,,,
100024661,2019-05-14 00:00,1.0,,,,40,35,75,,,,,,,
100024661,2019-05-14 01:00,1.0,,,,20,16,36,,,,,,,
100024661,2019-05-14 02:00,1.0,,,,14,5,19,,,,,,,
100024661,2019-05-14 03:00,1.0,,,,6,5,11,,,,,,,
100024661,2019-05-14 04:00,1.0,,,,6,15,21,,,,,,,
100024661,2019-05-14 05:00,1.0,,,,13,39,52,,,,,,,
100024661,2019-05-14 06:00,1.0,,,,61,117,178,,,,,,,
100024661,2019-05-14 07:00,1.0,,,,205,377,582,,,,,,,
100024661,2019-05-14 08:00,1.0,,,,526,891,1417,,,,,,,
100024661,2019-05-14 09:00,1.0,,,,529,722,1251,,,,,,,
100024661,2019-05-14 10:00,1.0,,,,236,276,512,,,,,,,
100024661,2019-05-14 11:00,1.0,,,,177,193,370,,,,,,,
100024661,2019-05-14 12:00,1.0,,,,238,198,436,,,,,,,
100024661,2019-05-14 13:00,1.0,,,,242,217,459,,,,,,,
100024661,2019-05-14 14:00,1.0,,,,258,214,472,,,,,,,
100024661,2019-05-14 15:00,1.0,,,,388,303,691,,,,,,,
100024661,2019-05-14 16:00,1.0,,,,448,298,746,,,,,,,
100024661,2019-05-14 17:00,1.0,,,,616,438,1054,,,,,,,
100024661,2019-05-14 18:00,1.0,,,,705,614,1319,,,,,,,
100024661,2019-05-14 19:00,1.0,,,,472,467,939,,,,,,,
100024661,2019-05-14 20:00,1.0,,,,295,257,552,,,,,,,
100024661,2019-05-14 21:00,1.0,,,,183,170,353,,,,,,,
100024661,2019-05-14 22:00,1.0,,,,139,136,275,,,,,,,
100024661,2019-05-14 23:00,1.0,,,,80,81,161,,,,,,,
100024661,2019-05-15 00:00,1.0,,,,42,35,77,,,,,,,
100024661,2019-05-15 01:00,1.0,,,,21,15,36,,,,,,,
100024661,2019-05-15 02:00,1.0,,,,8,8,16,,,,,,,
100024661,2019-05-15 03:00,1.0,,,,4,3,7,,,,,,,
100024661,2019-05-15 04:00,1.0,,,,4,17,21,,,,,,,
100024661,2019-05-15 05:00,1.0,,,,10,32,42,,,,,,,
100024661,2019-05-15 06:00,1.0,,,,57,117,174,,,,,,,
100024661,2019-05-15 07:00,1.0,,,,165,346,511,,,,,,,
100024661,2019-05-15 08:00,1.0,,,,476,787,1263,,,,,,,
100024661,2019-05-15 09:00,1.0,,,,506,709,1215,,,,,,,
100024661,2019-05-15 10:00,1.0,,,,232,289,521,,,,,,,
100024661,2019-05-15 11:00,1.0,,,,191,188,379,,,,,,,
100024661,2019-05-15 12:00,1.0,,,,200,171,371,,,,,,,
100024661,2019-05-15 13:00,1.0,,,,213,170,383,,,,,,,
100024661,2019-05-15 14:00,1.0,,,,267,247,514,,,,,,,
100024661,2019-05-15 15:00,1.0,,,,368,228,596,,,,,,,
100024661,2019-05-15 16:00,1.0,,,,401,290,691,,,,,,,
100024661,2019-05-15 17:00,1.0,,,,560,406,966,,,,,,,
100024661,2019-05-15 18:00,1.0,,,,656,555,1211,,,,,,,
100024661,2019-05-15 19:00,1.0,,,,404,422,826,,,,,,,
100024661,2019-05-15 20:00,1.0,,,,238,201,439,,,,,,,
100024661,2019-05-15 21:00,1.0,,,,161,156,317,,,,,,,
100024661,2019-05-15 22:00,1.0,,,,129,133,262,,,,,,,
100024661,2019-05-15 23:00,1.0,,,,96,87,183,,,,,,,
100024661,2019-05-16 00:00,1.0,,,,45,46,91,,,,,,,
100024661,2019-05-16 01:00,1.0,,,,18,24,42,,,,,,,
100024661,2019-05-16 02:00,1.0,,,,11,10,21,,,,,,,
100024661,2019-05-16 03:00,1.0,,,,11,3,14,,,,,,,
100024661,2019-05-16 04:00,1.0,,,,6,7,13,,,,,,,
100024661,2019-05-16 05:00,1.0,,,,5,16,21,,,,,,,
100024661,2019-05-16 06:00,1.0,,,,24,62,86,,,,,,,
100024661,2019-05-16 07:00,1.0,,,,95,182,277,,,,,,,
100024661,2019-05-16 08:00,1.0,,,,220,434,654,,,,,,,
100024661,2019-05-16 09:00,1.0,,,,235,341,576,,,,,,,
100024661,2019-05-16 10:00,1.0,,,,77,108,185,,,,,,,
100024661,2019-05-16 11:00,1.0,,,,71,83,154,,,,,,,
100024661,2019-05-16 12:00,1.0,,,,68,61,129,,,,,,,
100024661,2019-05-16 13:00,1.0,,,,103,81,184,,,,,,,
100024661,2019-05-16 14:00,1.0,,,,124,110,234,,,,,,,
100024661,2019-05-16 15:00,1.0,,,,215,161,376,,,,,,,
100024661,2019-05-16 16:00,1.0,,,,277,140,417,,,,,,,
100024661,2019-05-16 17:00,1.0,,,,342,203,545,,,,,,,
100024661,2019-05-16 18:00,1.0,,,,393,273,666,,,,,,,
100024661,2019-05-16 19:00,1.0,,,,216,194,410,,,,,,,
100024661,2019-05-16 20:00,1.0,,,,137,124,261,,,,,,,
100024661,2019-05-16 21:00,1.0,,,,86,126,212,,,,,,,
100024661,2019-05-16 22:00,1.0,,,,96,83,179,,,,,,,
100024661,2019-05-16 23:00,1.0,,,,58,47,105,,,,,,,
100024661,2019-05-17 00:00,1.0,,,,34,31,65,,,,,,,
100024661,2019-05-17 01:00,1.0,,,,23,25,48,,,,,,,
100024661,2019-05-17 02:00,1.0,,,,10,8,18,,,,,,,
100024661,2019-05-17 03:00,1.0,,,,9,0,9,,,,,,,
100024661,2019-05-17 04:00,1.0,,,,7,14,21,,,,,,,
100024661,2019-05-17 05:00,1.0,,,,22,25,47,,,,,,,
100024661,2019-05-17 06:00,1.0,,,,54,94,148,,,,,,,
100024661,2019-05-17 07:00,1.0,,,,138,280,418,,,,,,,
100024661,2019-05-17 08:00,1.0,,,,367,686,1053,,,,,,,
100024661,2019-05-17 09:00,1.0,,,,430,609,1039,,,,,,,
100024661,2019-05-17 10:00,1.0,,,,213,270,483,,,,,,,
100024661,2019-05-17 11:00,1.0,,,,151,215,366,,,,,,,
100024661,2019-05-17 12:00,1.0,,,,224,222,446,,,,,,,
100024661,2019-05-17 13:00,1.0,,,,276,251,527,,,,,,,
100024661,2019-05-17 14:00,1.0,,,,326,261,587,,,,,,,
100024661,2019-05-17 15:00,1.0,,,,425,331,756,,,,,,,
100024661,2019-05-17 16:00,1.0,,,,445,332,777,,,,,,,
100024661,2019-05-17 17:00,1.0,,,,491,374,865,,,,,,,
100024661,2019-05-17 18:00,1.0,,,,486,494,980,,,,,,,
100024661,2019-05-17 19:00,1.0,,,,363,370,733,,,,,,,
100024661,2019-05-17 20:00,1.0,,,,223,268,491,,,,,,,
100024661,2019-05-17 21:00,1.0,,,,148,162,310,,,,,,,
100024661,2019-05-17 22:00,1.0,,,,148,132,280,,,,,,,
100024661,2019-05-17 23:00,1.0,,,,137,129,266,,,,,,,
100024661,2019-05-18 00:00,1.0,,,,96,75,171,,,,,,,
100024661,2019-05-18 01:00,1.0,,,,75,75,150,,,,,,,
100024661,2019-05-18 02:00,1.0,,,,51,43,94,,,,,,,
100024661,2019-05-18 03:00,1.0,,,,39,19,58,,,,,,,
100024661,2019-05-18 04:00,1.0,,,,23,14,37,,,,,,,
100024661,2019-05-18 05:00,1.0,,,,20,15,35,,,,,,,
100024661,2019-05-18 06:00,1.0,,,,25,20,45,,,,,,,
100024661,2019-05-18 07:00,1.0,,,,40,20,60,,,,,,,
100024661,2019-05-18 08:00,1.0,,,,78,69,147,,,,,,,
100024661,2019-05-18 09:00,1.0,,,,138,111,249,,,,,,,
100024661,2019-05-18 10:00,1.0,,,,164,133,297,,,,,,,
100024661,2019-05-18 11:00,1.0,,,,193,152,345,,,,,,,
100024661,2019-05-18 12:00,1.0,,,,228,216,444,,,,,,,
100024661,2019-05-18 13:00,1.0,,,,254,245,499,,,,,,,
100024661,2019-05-18 14:00,1.0,,,,263,238,501,,,,,,,
100024661,2019-05-18 15:00,1.0,,,,255,354,609,,,,,,,
100024661,2019-05-18 16:00,1.0,,,,243,332,575,,,,,,,
100024661,2019-05-18 17:00,1.0,,,,290,272,562,,,,,,,
100024661,2019-05-18 18:00,1.0,,,,318,353,671,,,,,,,
100024661,2019-05-18 19:00,1.0,,,,248,332,580,,,,,,,
100024661,2019-05-18 20:00,1.0,,,,197,226,423,,,,,,,
100024661,2019-05-18 21:00,1.0,,,,150,173,323,,,,,,,
100024661,2019-05-18 22:00,1.0,,,,166,133,299,,,,,,,
100024661,2019-05-18 23:00,1.0,,,,129,153,282,,,,,,,
100024661,2019-05-19 00:00,1.0,,,,119,100,219,,,,,,,
100024661,2019-05-19 01:00,1.0,,,,123,75,198,,,,,,,
100024661,2019-05-19 02:00,1.0,,,,55,52,107,,,,,,,
100024661,2019-05-19 03:00,1.0,,,,42,35,77,,,,,,,
100024661,2019-05-19 04:00,1.0,,,,36,16,52,,,,,,,
100024661,2019-05-19 05:00,1.0,,,,17,17,34,,,,,,,
100024661,2019-05-19 06:00,1.0,,,,23,10,33,,,,,,,
100024661,2019-05-19 07:00,1.0,,,,33,15,48,,,,,,,
100024661,2019-05-19 08:00,1.0,,,,48,38,86,,,,,,,
100024661,2019-05-19 09:00,1.0,,,,91,83,174,,,,,,,
100024661,2019-05-19 10:00,1.0,,,,108,133,241,,,,,,,
100024661,2019-05-19 11:00,1.0,,,,233,141,374,,,,,,,
100024661,2019-05-19 12:00,1.0,,,,402,165,567,,,,,,,
100024661,2019-05-19 13:00,1.0,,,,300,233,533,,,,,,,
100024661,2019-05-19 14:00,1.0,,,,214,284,498,,,,,,,
100024661,2019-05-19 15:00,1.0,,,,224,276,500,,,,,,,
100024661,2019-05-19 16:00,1.0,,,,285,246,531,,,,,,,